Back to catalog

NOAA 16 DEB

AlivePO
NORAD 41427·DEBRIS·🇺🇸 United States

Launched Sep 21, 2000 from Vandenberg Space Force Base

Loading…

Next Passes (next 24 hours)

TLE

FreshSource: Space-Track

Epoch: Sep 13, 2026, 13:55 UTC

1 41427U 00055LG  26256.58037094  .00009577  00000-0  25423-2 0  9991
2 41427  98.9214  25.9816 0022652 232.8451 127.0672 14.48712950544566

Track NOAA 16 DEB in real time with AllMySat

Download on the App Store